Flag for Germany Weather past 2 weeks in Andernach, Rhineland-Palatinate, Germany

Now
41 °F

Fog.


Feels Like: 36 °F
Forecast: 33 / 60 °F
Wind: 8 mph from Northwest

Location: Buechel

Current Time: Apr 28, 2015 at 8:59:24 AM

Latest Report: Apr 28, 2015 at 8:20 AM


Visibility: 3 mi

Pressure: 29.92 "Hg

Humidity: 81%

Dew point: 36 °F

Location of AndernachLocation

Historic Weather in Andernach — Graph

°F

Andernach temperature yesterday

Maximum temperature yesterday: 52 °F (at 12:20 AM)
Minimum temperature yesterday: 41 °F (at 5:20 PM)
Average temperature yesterday: 45 °F

Past Weeks' High & Low Weather Summary

 TemperatureHumidityPressure
High72 °F (Apr 15, 4:20 PM)100% (Apr 25, 11:20 AM)30.45 "Hg (Apr 25, 11:20 AM)
Low36 °F (Apr 18, 4:20 AM)23% (Apr 21, 4:20 PM)29.59 "Hg (Apr 27, 1:20 AM)
Average51 °F60%30.08 "Hg
* Reported Apr 13 7:20 AM — Apr 28 7:20 AM, Andernach, Weather by CustomWeather, © 2015

Note: Actual official high and low records may vary slightly from our data, if they occured in-between our weather recording intervals... More about our weather records

Advertising

Andernach weather history for previous 24 hours

 ConditionsComfort  
Time TempWeatherWind HumidityBarometerVisibility
7:20 AM
Tue, Apr 28
36 °FFog.6 mph100%29.89 "Hg2 mi
6:20 AM36 °FFog.5 mph100%29.86 "Hg2 mi
5:20 AM37 °FPassing clouds.6 mph93%29.83 "Hg4 mi
4:20 AM37 °FPassing clouds.7 mph93%29.83 "Hg4 mi
3:20 AM39 °FChilly.6 mph93%29.80 "Hg6 mi
2:20 AM41 °FQuite cool.9 mph81%29.80 "HgN/A
1:20 AM41 °FQuite cool.7 mph81%29.80 "HgN/A
12:20 AM41 °FQuite cool.10 mph81%29.77 "HgN/A
11:20 PM
Mon, Apr 27
41 °FPartly cloudy.12 mph81%29.74 "Hg5 mi
10:20 PM41 °FPartly cloudy.9 mph87%29.74 "Hg5 mi
9:20 PM41 °FBroken clouds.10 mph87%29.74 "Hg5 mi
8:47 PM41 °FPartly sunny.12 mph87%29.74 "Hg5 mi
8:20 PM41 °FPartly sunny.10 mph93%29.74 "Hg5 mi
7:20 PM41 °FBroken clouds.15 mph93%29.71 "Hg4 mi
6:20 PM41 °FLight rain. Mostly cloudy.15 mph93%29.68 "Hg4 mi
5:20 PM41 °FRain. Fog.12 mph100%29.71 "Hg3 mi
4:20 PM43 °FRain. Fog.12 mph93%29.68 "Hg2 mi
3:20 PM43 °FRain. Fog.14 mph93%29.68 "Hg2 mi
2:20 PM43 °FLight rain. Fog.14 mph100%29.68 "Hg2 mi
1:20 PM45 °FDrizzle. Fog.12 mph93%29.68 "Hg1 mi
12:20 PM45 °FDrizzle. Fog.12 mph93%29.65 "Hg1 mi
12:00 PM45 °FDrizzle. Fog.13 mph93%29.65 "Hg1 mi
11:20 AM46 °FDrizzle. Fog.12 mph93%29.65 "Hg2 mi
10:20 AM46 °FDrizzle. Fog.12 mph100%29.65 "Hg2 mi
9:20 AM48 °FLight rain. Fog.9 mph94%29.62 "Hg2 mi
8:20 AM48 °FPartly sunny.8 mph94%29.62 "Hg4 mi
Weather by CustomWeather, © 2015

See weather overviewHow to use our weather pages